| time (UTC) | temp C | wind direction | speed KPH | gust KPH | rain 1hr cm | rain 24hr cm | rain mn cm | humidity % | barometer mb |
| 20260506035316 | -1 | 27 | 0.0 | 0.0 | 0.00 | 0.00 | 0.00 | 96 | 1002.3 |
| 20260506034828 | -1 | 27 | 0.0 | 1.6 | 0.00 | 0.00 | 0.00 | 96 | 1002.3 |
| 20260506034324 | -1 | 27 | 0.0 | 1.6 | 0.00 | 0.00 | 0.00 | 96 | 1002.2 |
| 20260506033857 | -1 | 27 | 0.0 | 0.0 | 0.00 | 0.00 | 0.00 | 96 | 1002.2 |
| 20260506033328 | -1 | 27 | 0.0 | 0.0 | 0.00 | 0.00 | 0.00 | 96 | 1002.2 |
| 20260506032837 | -1 | 27 | 0.0 | 0.0 | 0.00 | 0.00 | 0.00 | 96 | 1002.2 |
| 20260506032330 | -1 | 27 | 0.0 | 1.6 | 0.00 | 0.00 | 0.00 | 96 | 1002.2 |
| 20260506031820 | -1 | 27 | 0.0 | 3.2 | 0.00 | 0.00 | 0.00 | 95 | 1002.1 |
| 20260506031332 | -1 | 27 | 1.6 | 3.2 | 0.00 | 0.00 | 0.00 | 95 | 1002.1 |
| 20260506030825 | -1 | 25 | 0.0 | 0.0 | 0.00 | 0.00 | 0.00 | 95 | 1002.1 |
| 20260506030334 | -1 | 26 | 0.0 | 0.0 | 0.00 | 0.00 | 0.00 | 95 | 1002.1 |
| 20260506025829 | -1 | 26 | 0.0 | 0.0 | 0.00 | 0.00 | 0.00 | 95 | 1002.1 |
| 20260506025320 | -1 | 26 | 0.0 | 0.0 | 0.00 | 0.00 | 0.00 | 95 | 1002.0 |
| 20260506024832 | -1 | 26 | 0.0 | 0.0 | 0.00 | 0.00 | 0.00 | 95 | 1001.9 |
| 20260506024324 | -1 | 26 | 0.0 | 0.0 | 0.00 | 0.00 | 0.00 | 95 | 1001.9 |
| 20260506023837 | -1 | 26 | 0.0 | 0.0 | 0.00 | 0.00 | 0.00 | 95 | 1001.9 |
| 20260506023328 | -1 | 26 | 0.0 | 0.0 | 0.00 | 0.00 | 0.00 | 95 | 1001.8 |
| 20260506022839 | -1 | 26 | 0.0 | 0.0 | 0.00 | 0.00 | 0.00 | 94 | 1001.8 |
| 20260506022329 | -1 | 26 | 0.0 | 0.0 | 0.00 | 0.00 | 0.00 | 94 | 1001.8 |
| 20260506021818 | -1 | 26 | 0.0 | 0.0 | 0.00 | 0.00 | 0.00 | 94 | 1001.8 |
| 20260506021330 | -1 | 26 | 0.0 | 0.0 | 0.00 | 0.00 | 0.00 | 94 | 1001.7 |
| 20260506020827 | -1 | 26 | 0.0 | 0.0 | 0.00 | 0.00 | 0.00 | 94 | 1001.6 |
| 20260506020320 | -1 | 26 | 0.0 | 0.0 | 0.00 | 0.00 | 0.00 | 94 | 1001.6 |
| 20260506015830 | -1 | 26 | 0.0 | 0.0 | 0.00 | 0.00 | 0.00 | 94 | 1001.6 |
| 20260506015342 | -1 | 26 | 0.0 | 0.0 | 0.00 | 0.00 | 0.00 | 94 | 1001.5 |
| 20260506014833 | -1 | 26 | 0.0 | 0.0 | 0.00 | 0.00 | 0.00 | 94 | 1001.5 |
| 20260506014325 | -1 | 26 | 0.0 | 0.0 | 0.00 | 0.00 | 0.00 | 94 | 1001.4 |
| 20260506013816 | -1 | 26 | 0.0 | 0.0 | 0.00 | 0.00 | 0.00 | 94 | 1001.3 |
| 20260506013330 | -1 | 26 | 0.0 | 0.0 | 0.00 | 0.00 | 0.00 | 93 | 1001.3 |
| 20260506012825 | -1 | 26 | 0.0 | 0.0 | 0.00 | 0.00 | 0.00 | 93 | 1001.3 |
| 20260506012338 | -1 | 26 | 0.0 | 0.0 | 0.00 | 0.00 | 0.00 | 93 | 1001.2 |
| 20260506011850 | -1 | 26 | 0.0 | 0.0 | 0.00 | 0.00 | 0.00 | 93 | 1001.2 |
| 20260506011320 | -1 | 26 | 0.0 | 0.0 | 0.00 | 0.00 | 0.00 | 93 | 1001.2 |
| 20260506010852 | -1 | 26 | 0.0 | 0.0 | 0.00 | 0.00 | 0.00 | 93 | 1001.2 |
| 20260506010323 | -1 | 26 | 0.0 | 0.0 | 0.00 | 0.00 | 0.00 | 93 | 1001.1 |
| 20260506005814 | -1 | 26 | 0.0 | 0.0 | 0.00 | 0.00 | 0.00 | 92 | 1001.1 |
| 20260506005349 | -1 | 26 | 0.0 | 0.0 | 0.00 | 0.00 | 0.00 | 92 | 1001.1 |
| 20260506004818 | -1 | 26 | 0.0 | 3.2 | 0.00 | 0.00 | 0.00 | 92 | 1001.0 |
| 20260506004331 | -1 | 26 | 0.0 | 3.2 | 0.00 | 0.00 | 0.00 | 92 | 1001.1 |
| 20260506003835 | -1 | 26 | 0.0 | 4.8 | 0.00 | 0.00 | 0.00 | 92 | 1001.0 |
| 20260506003331 | -1 | 26 | 0.0 | 4.8 | 0.00 | 0.00 | 0.00 | 92 | 1001.0 |
| 20260506002823 | -1 | 22 | 0.0 | 3.2 | 0.00 | 0.00 | 0.00 | 92 | 1001.0 |
| 20260506002333 | -1 | 22 | 0.0 | 3.2 | 0.00 | 0.00 | 0.00 | 92 | 1001.0 |
| 20260506001848 | -1 | 22 | 0.0 | 0.0 | 0.00 | 0.00 | 0.00 | 92 | 1001.0 |
| 20260506001317 | -1 | 22 | 0.0 | 0.0 | 0.00 | 0.00 | 0.00 | 92 | 1001.0 |
| 20260506000850 | -1 | 22 | 0.0 | 0.0 | 0.00 | 0.00 | 0.00 | 91 | 1001.0 |
| 20260506000323 | -1 | 22 | 0.0 | 0.0 | 0.00 | 0.00 | 0.00 | 91 | 1001.0 |
| 20260505235833 | -1 | 22 | 0.0 | 0.0 | 0.00 | 0.00 | 0.00 | 91 | 1001.0 |
| 20260505235325 | -1 | 22 | 0.0 | 9.7 | 0.00 | 0.00 | 0.00 | 90 | 1001.0 |
| 20260505234819 | -1 | 22 | 1.6 | 9.7 | 0.00 | 0.00 | 0.00 | 89 | 1001.0 |
| 20260505234353 | -1 | 2 | 0.0 | 3.2 | 0.00 | 0.00 | 0.00 | 88 | 1001.0 |
| 20260505233822 | -1 | 358 | 0.0 | 0.0 | 0.00 | 0.00 | 0.00 | 88 | 1001.0 |
| 20260505233315 | -1 | 358 | 0.0 | 0.0 | 0.00 | 0.00 | 0.00 | 88 | 1000.9 |
| 20260505232829 | -1 | 358 | 0.0 | 0.0 | 0.00 | 0.00 | 0.00 | 88 | 1001.0 |
| 20260505232321 | -1 | 358 | 0.0 | 3.2 | 0.00 | 0.00 | 0.00 | 88 | 1000.9 |
| 20260505231831 | -1 | 358 | 0.0 | 3.2 | 0.00 | 0.00 | 0.00 | 87 | 1001.0 |
| 20260505231324 | -1 | 358 | 1.6 | 4.8 | 0.00 | 0.00 | 0.00 | 87 | 1001.0 |
| 20260505230815 | -1 | 352 | 1.6 | 4.8 | 0.00 | 0.00 | 0.00 | 87 | 1001.0 |
| 20260505230349 | -1 | 349 | 0.0 | 4.8 | 0.00 | 0.00 | 0.00 | 87 | 1001.0 |
| 20260505225821 | -1 | 350 | 0.0 | 4.8 | 0.00 | 0.00 | 0.00 | 86 | 1001.0 |
| 20260505225333 | -1 | 350 | 0.0 | 3.2 | 0.00 | 0.00 | 0.00 | 87 | 1001.0 |
| 20260505224844 | -1 | 350 | 0.0 | 0.0 | 0.00 | 0.00 | 0.00 | 87 | 1001.1 |
| 20260505224334 | -1 | 350 | 0.0 | 0.0 | 0.00 | 0.00 | 0.00 | 86 | 1001.1 |
| 20260505223846 | -1 | 348 | 0.0 | 0.0 | 0.00 | 0.00 | 0.00 | 86 | 1001.1 |
| 20260505223337 | -1 | 349 | 0.0 | 0.0 | 0.00 | 0.00 | 0.00 | 87 | 1001.1 |
| 20260505222829 | -1 | 349 | 0.0 | 0.0 | 0.00 | 0.00 | 0.00 | 86 | 1001.0 |
| 20260505222322 | -1 | 348 | 0.0 | 1.6 | 0.00 | 0.00 | 0.00 | 86 | 1001.0 |
| 20260505221835 | -1 | 349 | 0.0 | 1.6 | 0.00 | 0.00 | 0.00 | 86 | 1001.0 |
| 20260505221325 | -1 | 348 | 0.0 | 0.0 | 0.00 | 0.00 | 0.00 | 87 | 1001.0 |
| 20260505220839 | -1 | 348 | 0.0 | 0.0 | 0.00 | 0.00 | 0.00 | 87 | 1001.0 |
| 20260505220351 | -1 | 348 | 0.0 | 0.0 | 0.00 | 0.00 | 0.00 | 86 | 1001.0 |
| 20260505215841 | -1 | 349 | 0.0 | 3.2 | 0.00 | 0.00 | 0.00 | 86 | 1001.0 |
| 20260505215330 | -1 | 348 | 0.0 | 4.8 | 0.00 | 0.00 | 0.00 | 86 | 1001.0 |
| 20260505214823 | -1 | 348 | 1.6 | 4.8 | 0.00 | 0.00 | 0.00 | 86 | 1001.2 |
| 20260505214316 | -1 | 348 | 0.0 | 4.8 | 0.00 | 0.00 | 0.00 | 85 | 1001.1 |
| 20260505213847 | -1 | 348 | 1.6 | 4.8 | 0.00 | 0.00 | 0.00 | 85 | 1001.1 |
| 20260505213338 | -1 | 349 | 0.0 | 0.0 | 0.00 | 0.00 | 0.00 | 85 | 1001.1 |
| 20260505212829 | -1 | 349 | 0.0 | 1.6 | 0.00 | 0.00 | 0.00 | 85 | 1001.1 |
| 20260505212322 | -1 | 349 | 0.0 | 1.6 | 0.00 | 0.00 | 0.00 | 85 | 1001.1 |
| 20260505211833 | -1 | 349 | 0.0 | 3.2 | 0.00 | 0.00 | 0.00 | 85 | 1001.2 |
| 20260505211345 | -1 | 349 | 1.6 | 3.2 | 0.00 | 0.00 | 0.00 | 85 | 1001.1 |
| 20260505210818 | -1 | 349 | 0.0 | 1.6 | 0.00 | 0.00 | 0.00 | 85 | 1001.2 |
| 20260505210331 | -1 | 349 | 0.0 | 1.6 | 0.00 | 0.00 | 0.00 | 85 | 1001.2 |
| 20260505205822 | -1 | 349 | 0.0 | 1.6 | 0.00 | 0.00 | 0.00 | 85 | 1001.2 |
| 20260505205315 | -1 | 349 | 0.0 | 3.2 | 0.00 | 0.00 | 0.00 | 85 | 1001.2 |
| 20260505204827 | -1 | 349 | 1.6 | 3.2 | 0.00 | 0.00 | 0.00 | 85 | 1001.1 |
| 20260505204338 | -1 | 348 | 1.6 | 3.2 | 0.00 | 0.00 | 0.00 | 84 | 1001.1 |
| 20260505203828 | -1 | 346 | 0.0 | 1.6 | 0.00 | 0.00 | 0.00 | 84 | 1001.1 |
| 20260505203341 | 0 | 346 | 0.0 | 1.6 | 0.00 | 0.00 | 0.00 | 84 | 1001.1 |
| 20260505202854 | 0 | 346 | 0.0 | 3.2 | 0.00 | 0.00 | 0.00 | 84 | 1001.1 |
| 20260505202325 | 0 | 346 | 0.0 | 4.8 | 0.00 | 0.00 | 0.00 | 83 | 1001.2 |
| 20260505201819 | 0 | 346 | 3.2 | 6.4 | 0.00 | 0.00 | 0.00 | 83 | 1001.2 |
| 20260505201333 | 0 | 347 | 3.2 | 6.4 | 0.00 | 0.00 | 0.00 | 83 | 1001.2 |
| 20260505200835 | 0 | 357 | 0.0 | 3.2 | 0.00 | 0.00 | 0.00 | 83 | 1001.3 |
| 20260505200349 | 0 | 358 | 0.0 | 8.0 | 0.00 | 0.00 | 0.00 | 82 | 1001.2 |
| 20260505195839 | 0 | 4 | 3.2 | 8.0 | 0.00 | 0.00 | 0.00 | 82 | 1001.2 |
| 20260505195331 | 0 | 10 | 0.0 | 4.8 | 0.00 | 0.00 | 0.00 | 81 | 1001.2 |
| 20260505194818 | 0 | 1 | 1.6 | 4.8 | 0.00 | 0.00 | 0.00 | 82 | 1001.1 |
| 20260505194332 | 0 | 4 | 0.0 | 6.4 | 0.00 | 0.00 | 0.00 | 82 | 1001.2 |
| 20260505193823 | 0 | 4 | 3.2 | 6.4 | 0.00 | 0.00 | 0.00 | 82 | 1001.2 |
| 20260505193319 | 0 | 6 | 3.2 | 4.8 | 0.00 | 0.00 | 0.00 | 82 | 1001.2 |
| 20260505192832 | 0 | 8 | 1.6 | 4.8 | 0.00 | 0.00 | 0.00 | 82 | 1001.3 |
| 20260505192323 | 0 | 8 | 0.0 | 6.4 | 0.00 | 0.00 | 0.00 | 82 | 1001.2 |
| 20260505191817 | 0 | 6 | 0.0 | 6.4 | 0.00 | 0.00 | 0.00 | 81 | 1001.2 |
| 20260505191328 | 0 | 6 | 4.8 | 6.4 | 0.00 | 0.00 | 0.00 | 81 | 1001.2 |
| 20260505190839 | 0 | 2 | 3.2 | 12.9 | 0.00 | 0.00 | 0.00 | 80 | 1001.1 |
| 20260505190332 | 0 | 1 | 3.2 | 12.9 | 0.00 | 0.00 | 0.00 | 79 | 1001.2 |
| 20260505185823 | 0 | 339 | 1.6 | 9.7 | 0.00 | 0.00 | 0.00 | 78 | 1001.2 |
| 20260505185334 | 0 | 336 | 3.2 | 9.7 | 0.00 | 0.00 | 0.00 | 77 | 1001.2 |
| 20260505184848 | 0 | 31 | 1.6 | 4.8 | 0.00 | 0.00 | 0.00 | 77 | 1001.2 |
| 20260505184324 | 0 | 33 | 1.6 | 6.4 | 0.00 | 0.00 | 0.00 | 76 | 1001.1 |
| 20260505183815 | 0 | 33 | 3.2 | 6.4 | 0.00 | 0.00 | 0.00 | 76 | 1001.0 |
| 20260505183328 | 0 | 335 | 0.0 | 8.0 | 0.00 | 0.00 | 0.00 | 75 | 1001.1 |
| 20260505182840 | 0 | 333 | 4.8 | 8.0 | 0.00 | 0.00 | 0.00 | 75 | 1001.2 |
| 20260505182331 | 1 | 332 | 1.6 | 8.0 | 0.00 | 0.00 | 0.00 | 74 | 1001.2 |
| 20260505181820 | 1 | 341 | 1.6 | 8.0 | 0.00 | 0.00 | 0.00 | 73 | 1001.1 |
| 20260505181331 | 1 | 351 | 3.2 | 9.7 | 0.00 | 0.00 | 0.00 | 73 | 1001.1 |
| 20260505180825 | 1 | 348 | 4.8 | 12.9 | 0.00 | 0.00 | 0.00 | 71 | 1001.1 |
| 20260505180321 | 1 | 10 | 6.4 | 12.9 | 0.00 | 0.00 | 0.00 | 71 | 1001.1 |
| 20260505175832 | 1 | 318 | 6.4 | 12.9 | 0.00 | 0.00 | 0.00 | 71 | 1001.1 |
| 20260505175325 | 1 | 328 | 6.4 | 14.5 | 0.00 | 0.00 | 0.00 | 71 | 1001.1 |
| 20260505174857 | 1 | 332 | 4.8 | 14.5 | 0.00 | 0.00 | 0.00 | 70 | 1001.1 |
| 20260505174327 | 1 | 332 | 6.4 | 14.5 | 0.00 | 0.00 | 0.00 | 69 | 1001.2 |
| 20260505173819 | 1 | 58 | 1.6 | 9.7 | 0.00 | 0.00 | 0.00 | 67 | 1001.1 |
| 20260505173331 | 2 | 337 | 6.4 | 11.3 | 0.00 | 0.00 | 0.00 | 66 | 1001.0 |
| 20260505172820 | 2 | 341 | 8.0 | 14.5 | 0.00 | 0.00 | 0.00 | 66 | 1001.0 |
| 20260505172352 | 2 | 302 | 4.8 | 16.1 | 0.00 | 0.00 | 0.00 | 65 | 1001.0 |
| 20260505171823 | 2 | 309 | 8.0 | 16.1 | 0.00 | 0.00 | 0.00 | 65 | 1001.0 |
| 20260505171320 | 2 | 304 | 4.8 | 17.7 | 0.00 | 0.00 | 0.00 | 64 | 1000.9 |
| 20260505170852 | 2 | 327 | 4.8 | 17.7 | 0.00 | 0.00 | 0.00 | 64 | 1000.9 |
| 20260505170347 | 2 | 344 | 8.0 | 17.7 | 0.00 | 0.00 | 0.00 | 64 | 1001.0 |
| 20260505165814 | 3 | 342 | 11.3 | 17.7 | 0.00 | 0.00 | 0.00 | 63 | 1000.9 |
| 20260505165326 | 3 | 311 | 3.2 | 17.7 | 0.00 | 0.00 | 0.00 | 63 | 1000.9 |
| 20260505164817 | 3 | 322 | 6.4 | 17.7 | 0.00 | 0.00 | 0.00 | 62 | 1000.7 |
| 20260505164330 | 3 | 345 | 8.0 | 16.1 | 0.00 | 0.00 | 0.00 | 61 | 1000.8 |
| 20260505163819 | 3 | 357 | 6.4 | 17.7 | 0.00 | 0.00 | 0.00 | 61 | 1000.8 |
| 20260505163330 | 3 | 332 | 8.0 | 17.7 | 0.00 | 0.00 | 0.00 | 61 | 1000.8 |
| 20260505162827 | 3 | 330 | 8.0 | 17.7 | 0.00 | 0.00 | 0.00 | 61 | 1000.8 |
| 20260505162318 | 3 | 249 | 8.0 | 17.7 | 0.00 | 0.00 | 0.00 | 59 | 1000.8 |
| 20260505161852 | 3 | 281 | 8.0 | 17.7 | 0.00 | 0.00 | 0.00 | 59 | 1000.8 |
| 20260505161323 | 3 | 323 | 9.7 | 20.9 | 0.00 | 0.00 | 0.00 | 60 | 1000.8 |
| 20260505160815 | 3 | 307 | 11.3 | 24.1 | 0.00 | 0.00 | 0.00 | 59 | 1000.7 |
| 20260505160330 | 3 | 271 | 11.3 | 24.1 | 0.00 | 0.00 | 0.00 | 59 | 1000.8 |
| 20260505153321 | 2 | 332 | 8.0 | 16.1 | 0.00 | 0.00 | 0.00 | 67 | 1000.8 |
| 20260505152834 | 2 | 332 | 8.0 | 19.3 | 0.00 | 0.00 | 0.00 | 69 | 1000.9 |
| 20260505152327 | 2 | 291 | 4.8 | 20.9 | 0.00 | 0.00 | 0.00 | 67 | 1000.9 |
| 20260505151837 | 2 | 327 | 9.7 | 20.9 | 0.00 | 0.00 | 0.00 | 69 | 1000.9 |
| 20260505151330 | 2 | 323 | 11.3 | 19.3 | 0.00 | 0.00 | 0.00 | 69 | 1000.9 |
| 20260505150821 | 2 | 301 | 8.0 | 22.5 | 0.00 | 0.00 | 0.00 | 68 | 1000.9 |
| 20260505150331 | 2 | 308 | 11.3 | 22.5 | 0.00 | 0.00 | 0.00 | 68 | 1000.9 |
| 20260505140316 | 5 | 14 | 16.1 | 24.1 | 0.00 | 0.00 | 0.00 | 54 | 1000.4 |
| 20260505124815 | 5 | 312 | 6.4 | 16.1 | 0.00 | 0.00 | 0.00 | 62 | 1000.0 |
| 20260505124328 | 5 | 336 | 6.4 | 17.7 | 0.00 | 0.00 | 0.00 | 64 | 1000.1 |
| 20260505123822 | 5 | 330 | 9.7 | 19.3 | 0.00 | 0.00 | 0.00 | 65 | 1000.2 |
| 20260505123316 | 5 | 347 | 4.8 | 16.1 | 0.00 | 0.00 | 0.00 | 68 | 1000.1 |
| 20260505122829 | 4 | 329 | 6.4 | 19.3 | 0.00 | 0.00 | 0.00 | 72 | 1000.1 |
| 20260505122320 | 3 | 299 | 12.9 | 19.3 | 0.00 | 0.00 | 0.00 | 74 | 1000.1 |
| 20260505121832 | 3 | 301 | 8.0 | 22.5 | 0.00 | 0.00 | 0.00 | 72 | 999.9 |
| 20260505121325 | 3 | 326 | 14.5 | 22.5 | 0.00 | 0.00 | 0.00 | 78 | 1000.1 |
| 20260505120817 | 3 | 330 | 9.7 | 22.5 | 0.00 | 0.00 | 0.00 | 77 | 1000.1 |
| 20260505120351 | 3 | 327 | 11.3 | 27.4 | 0.00 | 0.00 | 0.00 | 82 | 1000.1 |
| 20260505115816 | 3 | 327 | 16.1 | 33.8 | 0.00 | 0.00 | 0.00 | 75 | 1000.1 |
| 20260505115330 | 3 | 328 | 14.5 | 25.7 | 0.00 | 0.00 | 0.00 | 61 | 1000.0 |
| 20260505114818 | 4 | 329 | 9.7 | 24.1 | 0.00 | 0.00 | 0.00 | 58 | 999.8 |
| 20260505114332 | 4 | 335 | 9.7 | 24.1 | 0.00 | 0.00 | 0.00 | 59 | 999.7 |
| 20260505113820 | 4 | 347 | 8.0 | 20.9 | 0.00 | 0.00 | 0.00 | 60 | 999.7 |
| 20260505113354 | 5 | 331 | 9.7 | 20.9 | 0.00 | 0.00 | 0.00 | 59 | 999.7 |
| 20260505112826 | 5 | 311 | 12.9 | 19.3 | 0.00 | 0.00 | 0.00 | 59 | 999.7 |
| 20260505112319 | 4 | 315 | 9.7 | 24.1 | 0.00 | 0.00 | 0.00 | 66 | 999.6 |
| 20260505111832 | 3 | 335 | 16.1 | 25.7 | 0.00 | 0.00 | 0.00 | 66 | 999.6 |
| 20260505111327 | 3 | 309 | 9.7 | 25.7 | 0.00 | 0.00 | 0.00 | 65 | 999.6 |
| 20260505110840 | 3 | 351 | 12.9 | 20.9 | 0.00 | 0.00 | 0.00 | 68 | 999.6 |
| 20260505110333 | 2 | 335 | 9.7 | 19.3 | 0.00 | 0.00 | 0.00 | 68 | 999.5 |
| 20260505101822 | 3 | 339 | 8.0 | 20.9 | 0.00 | 0.00 | 0.00 | 60 | 999.3 |
| 20260505101354 | 3 | 16 | 9.7 | 20.9 | 0.00 | 0.00 | 0.00 | 60 | 999.2 |
| 20260505100822 | 3 | 355 | 12.9 | 20.9 | 0.00 | 0.00 | 0.00 | 63 | 999.2 |
| 20260505100315 | 2 | 314 | 9.7 | 20.9 | 0.00 | 0.00 | 0.00 | 63 | 999.1 |
| 20260505095825 | 2 | 341 | 12.9 | 20.9 | 0.00 | 0.00 | 0.00 | 62 | 999.1 |
| 20260505095317 | 2 | 324 | 11.3 | 19.3 | 0.00 | 0.00 | 0.00 | 62 | 999.1 |
| 20260505094830 | 2 | 335 | 8.0 | 25.7 | 0.00 | 0.00 | 0.00 | 64 | 999.1 |
| 20260505094321 | 3 | 330 | 9.7 | 22.5 | 0.00 | 0.00 | 0.00 | 63 | 999.1 |
| 20260505093854 | 3 | 346 | 8.0 | 22.5 | 0.00 | 0.00 | 0.00 | 63 | 999.0 |
| 20260505093345 | 3 | 281 | 9.7 | 22.5 | 0.00 | 0.00 | 0.00 | 62 | 998.9 |
| 20260505092820 | 4 | 296 | 4.8 | 20.9 | 0.00 | 0.00 | 0.00 | 62 | 998.9 |
| 20260505092332 | 4 | 286 | 8.0 | 19.3 | 0.00 | 0.00 | 0.00 | 61 | 998.9 |
| 20260505091822 | 4 | 316 | 9.7 | 19.3 | 0.00 | 0.00 | 0.00 | 65 | 998.8 |
| 20260505091333 | 3 | 310 | 6.4 | 20.9 | 0.00 | 0.00 | 0.00 | 67 | 998.6 |
| 20260505090818 | 3 | 341 | 14.5 | 20.9 | 0.00 | 0.00 | 0.00 | 69 | 998.6 |
| 20260505090351 | 3 | 326 | 6.4 | 16.1 | 0.00 | 0.00 | 0.00 | 74 | 998.8 |
| 20260505085820 | 2 | 330 | 9.7 | 16.1 | 0.00 | 0.00 | 0.00 | 79 | 998.9 |
| 20260505085332 | 1 | 332 | 4.8 | 16.1 | 0.00 | 0.00 | 0.00 | 83 | 998.9 |
| 20260505084824 | 0 | 343 | 6.4 | 20.9 | 0.00 | 0.00 | 0.00 | 82 | 999.0 |
| 20260505084319 | 0 | 357 | 11.3 | 20.9 | 0.00 | 0.00 | 0.00 | 81 | 998.9 |
| 20260505083831 | 0 | 301 | 8.0 | 22.5 | 0.00 | 0.00 | 0.00 | 80 | 998.8 |
| 20260505083344 | 0 | 286 | 9.7 | 24.1 | 0.00 | 0.00 | 0.00 | 79 | 998.7 |
| 20260505082817 | 0 | 300 | 9.7 | 22.5 | 0.00 | 0.00 | 0.00 | 75 | 998.6 |
| 20260505082327 | 0 | 317 | 9.7 | 22.5 | 0.00 | 0.00 | 0.00 | 73 | 998.6 |
| 20260505081817 | 0 | 322 | 11.3 | 22.5 | 0.00 | 0.00 | 0.00 | 73 | 998.5 |
| 20260505081328 | 0 | 297 | 9.7 | 22.5 | 0.00 | 0.00 | 0.00 | 73 | 998.5 |
| 20260505080820 | 0 | 318 | 9.7 | 19.3 | 0.00 | 0.00 | 0.00 | 73 | 998.3 |
| 20260505080315 | 0 | 322 | 9.7 | 25.7 | 0.00 | 0.00 | 0.00 | 73 | 998.3 |
| 20260505075828 | 0 | 337 | 9.7 | 17.7 | 0.00 | 0.00 | 0.00 | 74 | 998.4 |
| 20260505075320 | 0 | 314 | 8.0 | 17.7 | 0.00 | 0.00 | 0.00 | 76 | 998.3 |
| 20260505074832 | 0 | 318 | 9.7 | 17.7 | 0.00 | 0.00 | 0.00 | 77 | 998.3 |
| 20260505074324 | 0 | 298 | 6.4 | 16.1 | 0.00 | 0.00 | 0.00 | 77 | 998.2 |
| 20260505073816 | 0 | 341 | 8.0 | 16.1 | 0.00 | 0.00 | 0.00 | 77 | 998.2 |
| 20260505073330 | 0 | 346 | 6.4 | 16.1 | 0.00 | 0.00 | 0.00 | 76 | 998.2 |
| 20260505072822 | 0 | 11 | 4.8 | 17.7 | 0.00 | 0.00 | 0.00 | 76 | 998.2 |
| 20260505072317 | 0 | 24 | 9.7 | 19.3 | 0.00 | 0.00 | 0.00 | 75 | 998.2 |
| 20260505071831 | 0 | 13 | 11.3 | 25.7 | 0.00 | 0.00 | 0.00 | 76 | 998.1 |
| 20260505071323 | 0 | 328 | 9.7 | 20.9 | 0.00 | 0.00 | 0.00 | 76 | 998.1 |
| 20260505070834 | 0 | 345 | 11.3 | 20.9 | 0.00 | 0.00 | 0.00 | 76 | 998.0 |
| 20260505070326 | 0 | 323 | 6.4 | 16.1 | 0.00 | 0.00 | 0.00 | 77 | 998.0 |
| 20260505065817 | 0 | 349 | 9.7 | 20.9 | 0.00 | 0.00 | 0.00 | 76 | 998.0 |
| 20260505065328 | 0 | 325 | 9.7 | 20.9 | 0.00 | 0.00 | 0.00 | 76 | 998.0 |
| 20260505064817 | 0 | 341 | 6.4 | 14.5 | 0.00 | 0.00 | 0.00 | 76 | 998.0 |
| 20260505064329 | 0 | 332 | 4.8 | 12.9 | 0.00 | 0.00 | 0.00 | 75 | 997.9 |
| 20260505063825 | 0 | 7 | 4.8 | 16.1 | 0.00 | 0.00 | 0.00 | 75 | 998.0 |
| 20260505063318 | 0 | 335 | 8.0 | 17.7 | 0.00 | 0.00 | 0.00 | 75 | 998.0 |
| 20260505062831 | 0 | 21 | 8.0 | 17.7 | 0.00 | 0.00 | 0.00 | 76 | 998.0 |
| 20260505062342 | -1 | 341 | 6.4 | 11.3 | 0.00 | 0.00 | 0.00 | 76 | 998.0 |
| 20260505061835 | -1 | 341 | 6.4 | 14.5 | 0.00 | 0.00 | 0.00 | 77 | 998.1 |
| 20260505061326 | -1 | 4 | 1.6 | 9.7 | 0.00 | 0.00 | 0.00 | 76 | 998.0 |
| 20260505060835 | -1 | 349 | 4.8 | 16.1 | 0.00 | 0.00 | 0.00 | 76 | 998.0 |
| 20260505060327 | -1 | 357 | 6.4 | 16.1 | 0.00 | 0.00 | 0.00 | 75 | 998.0 |
| 20260505055835 | -1 | 334 | 4.8 | 22.5 | 0.00 | 0.00 | 0.00 | 75 | 998.0 |
| 20260505055332 | -1 | 347 | 6.4 | 22.5 | 0.00 | 0.00 | 0.00 | 75 | 998.0 |
| 20260505054823 | -1 | 333 | 8.0 | 16.1 | 0.00 | 0.00 | 0.00 | 75 | 997.8 |
| 20260505054316 | -1 | 334 | 8.0 | 16.1 | 0.00 | 0.00 | 0.00 | 75 | 997.8 |
| 20260505053826 | 0 | 332 | 8.0 | 14.5 | 0.00 | 0.00 | 0.00 | 75 | 997.8 |
| 20260505053319 | 0 | 300 | 6.4 | 14.5 | 0.00 | 0.00 | 0.00 | 75 | 997.8 |
| 20260505052832 | 0 | 328 | 8.0 | 17.7 | 0.00 | 0.00 | 0.00 | 74 | 997.8 |
| 20260505052322 | 0 | 328 | 8.0 | 19.3 | 0.00 | 0.00 | 0.00 | 74 | 997.8 |
| 20260505051833 | 0 | 328 | 8.0 | 19.3 | 0.00 | 0.00 | 0.00 | 74 | 997.7 |
| 20260505051329 | 0 | 334 | 9.7 | 20.9 | 0.00 | 0.00 | 0.00 | 75 | 997.7 |
| 20260505050823 | 0 | 327 | 11.3 | 20.9 | 0.00 | 0.00 | 0.00 | 77 | 997.7 |
| 20260505050314 | 0 | 341 | 11.3 | 17.7 | 0.00 | 0.00 | 0.00 | 77 | 997.7 |
| 20260505041313 | -1 | 330 | 6.4 | 14.5 | 0.00 | 0.00 | 0.00 | 77 | 997.3 |
| 20260505040827 | -2 | 337 | 6.4 | 17.7 | 0.00 | 0.00 | 0.00 | 77 | 997.3 |
| 20260505040320 | -2 | 342 | 8.0 | 17.7 | 0.00 | 0.00 | 0.00 | 77 | 997.2 |
| 20260505035832 | -2 | 351 | 6.4 | 12.9 | 0.00 | 0.00 | 0.00 | 78 | 997.2 |